Location: Newark
(38.8913°N, 77.0259°W)
Time: 11:20:09
(UTC+00:00)

ISS - Visible Passes

Search period start: 07 December 2019 00:00
Search period end: 17 December 2019 00:00
Orbit: 411 x 421 km, 51.6° (Epoch: 07 December)

Date Brightness Start Highest point End Pass type
(mag) Time Alt. Az. Time Alt. Az. Time Alt. Az.
07 Dec -2.5 22:52:17 10° NNW 22:55:06 24° NNE 22:55:48 22° NE visible
08 Dec -3.2 23:40:10 10° NW 23:42:51 53° WNW 23:42:51 53° WNW visible
09 Dec -3.7 22:51:44 10° NW 22:55:02 55° NE 22:57:14 19° ESE visible
10 Dec -0.4 00:29:30 10° W 00:30:13 13° WSW 00:30:13 13° WSW visible
10 Dec -1.6 23:40:16 10° WNW 23:43:07 26° SW 23:45:03 16° S visible
11 Dec -2.7 22:51:29 10° WNW 22:54:43 47° SW 22:57:57 10° SSE visible
13 Dec -0.6 22:52:00 10° W 22:54:09 16° SW 22:56:17 10° S visible
